ATLAS CENTAUR 2 R/B 1 00694U 63047A 09006.70961577 .00000182 00000-0 13852-4 0 8461 2 00694 030.3562 103.1548 0617017 087.7289 279.3760 13.94954952250883 THOR AGENA D R/B 1 00733U 64002A 09006.61892009 .00000003 00000-0 19352-4 0 6719 2 00733 099.1268 020.3723 0034666 140.9706 219.3993 14.31243756341098 SL-3 R/B 1 00877U 64053B 09006.34024649 -.00000072 00000-0 10701-4 0 9833 2 00877 065.0811 292.9578 0083169 246.0746 113.1627 14.58074150351749 SL-8 R/B 1 02802U 67045B 09006.51475216 .00000063 00000-0 26704-4 0 9059 2 02802 074.0110 140.7343 0068427 216.3664 143.2844 14.42444029184209 SL-8 R/B 1 03230U 68040B 09006.64968112 .00000115 00000-0 18148-4 0 5357 2 03230 074.0371 260.8544 0034391 308.7453 051.0655 14.84170101177285 OAO 2 1 03597U 68110A 09007.16168828 .00000013 00000-0 92095-5 0 9462 2 03597 034.9961 265.4724 0005152 071.0426 289.0821 14.44856251111655 ISIS 1 1 03669U 69009A 09005.86996781 -.00000001 +00000-0 -17514-4 0 08215 2 03669 088.4392 129.7614 1714944 129.2840 247.3355 11.28853486640898 METEOR 1-1 1 03835U 69029A 09006.17754689 .00001607 00000-0 30850-4 0 9777 2 03835 081.1650 243.7791 0009761 079.7943 280.4390 15.47234726172329 SERT 2 1 04327U 70009A 09005.86297613 +.00000032 +00000-0 +10000-3 0 09638 2 04327 099.2380 249.0145 0005398 017.8629 342.2700 13.58220703928763 SL-3 R/B 1 04814U 70113B 09006.06170800 .00001139 00000-0 60913-4 0 8475 2 04814 081.1489 050.7894 0041387 028.1692 332.1776 15.13501717 65713 SL-3 R/B 1 05118U 71028B 09006.21773294 .00000258 00000-0 17268-4 0 391 2 05118 081.2357 059.1051 0049495 027.6149 332.7730 15.02231173 39804 ASTEX 1 1 05560U 71089A 09005.92320130 .00000085 00000-0 24127-4 0 6995 2 05560 092.7247 291.4094 0015201 302.2967 057.6764 14.46180514955150 SL-8 R/B 1 05730U 71119B 09006.65517206 .00001100 00000-0 84012-4 0 296 2 05730 073.9032 066.9830 0806316 184.6388 174.6932 13.76613241778069 COSMOS 482 DESCENT CRAFT 1 06073U 72023E 09007.15575446 .00014241 29385-5 10991-3 0 5413 2 06073 052.1039 092.9925 2225650 183.6138 174.5801 11.13223403997399 OAO 3 (COPERNICUS) 1 06153U 72065A 09007.07744745 .00000013 00000-0 73984-5 0 765 2 06153 035.0085 255.3829 0006510 165.2190 194.8698 14.56553408930949 ATLAS CENTAUR R/B 1 06155U 72065B 09007.14812471 .00000060 00000-0 14247-4 0 7560 2 06155 035.0075 315.0116 0040987 338.2237 021.6737 14.67945329938222 OPS 8180 (RADCAT) 1 06212U 72076A 09006.01260310 .00002122 00000-0 80656-4 0 6411 2 06212 098.5867 349.3165 0003177 172.2436 187.8868 15.28216626 98103 SL-8 R/B 1 07004U 73107B 09006.49993403 .00000870 00000-0 37928-4 0 9049 2 07004 073.9567 204.8412 0431132 107.1731 257.7116 14.67409359776585 SL-8 R/B 1 07338U 74044B 09006.65029755 .00004858 00000-0 99871-4 0 7670 2 07338 082.8832 233.6791 0223590 289.2558 068.4593 15.23113932774996 DELTA 1 R/B 1 08063U 75072B 09006.55516301 .00008025 00000-0 22297-3 0 1238 2 08063 089.1519 352.5963 0957382 031.2637 334.1970 13.66635923446590 SL-8 R/B 1 08459U 75112B 09006.54729871 -.00000029 00000-0 -10804-5 0 5492 2 08459 074.0612 006.2415 0017170 230.3097 129.6542 14.35873586731499 SL-3 R/B 1 10114U 77057B 09006.92464992 .00000882 00000-0 60100-4 0 7428 2 10114 097.5148 267.6334 0016442 182.4127 177.7059 15.08697457717650 SL-3 R/B 1 10861U 78045B 09006.09933766 .00001272 00000-0 32918-4 0 9043 2 10861 081.2010 273.0079 0020561 181.7384 178.3778 15.38039947680402 SEASAT 1 1 10967U 78064A 09006.29024223 -.00000044 00000-0 28142-4 0 7119 2 10967 108.0142 345.9744 0003570 264.7945 095.2801 14.42121651601839 SL-14 R/B 1 11267U 79011B 09006.65739768 .00000119 00000-0 10513-4 0 6814 2 11267 082.5239 255.6309 0018973 031.7931 328.4449 14.86992660616996 SL-3 R/B 1 11332U 79032B 09006.57092765 .00050315 -15694-7 15066-3 0 1234 2 11332 081.2251 131.4007 0005214 036.3536 323.8088 15.92141020639482 SL-8 R/B 1 11574U 79089B 09006.48658475 -.00000002 00000-0 75898-5 0 1686 2 11574 074.0673 145.4883 0015686 117.4906 242.7847 14.39582167533274 SL-14 R/B 1 11672U 80005B 09006.50218609 .00000095 00000-0 79885-5 0 2872 2 11672 082.5157 104.9799 0019116 096.3203 264.0177 14.86044141565193 SL-3 R/B 1 11849U 80051B 09005.92719384 .00000780 00000-0 33942-4 0 7262 2 11849 097.6768 132.9700 0012369 099.5596 260.7069 15.25358592562934 SL-3 R/B 1 11933U 80069B 09006.91233563 .00001084 00000-0 31987-4 0 5820 2 11933 081.2161 225.5569 0024567 045.1405 315.1843 15.33720817556441 COSMOS 1220 1 12054U 80089A 09006.80333522 .00001407 00000-0 65525-4 0 8907 2 12054 064.9692 104.2832 0069372 233.5448 125.9276 15.22635645443659 SL-8 R/B 1 12139U 81003B 09006.52867903 .00001276 00000-0 76326-4 0 6624 2 12139 082.9577 191.8876 0595353 011.1480 350.2271 14.23925075404186 SL-8 R/B 1 12389U 81033B 09006.05383363 .00002348 00000-0 75963-4 0 2303 2 12389 082.9182 105.4495 0413169 008.8190 352.0033 14.76380477413071 SL-3 R/B 1 12465U 81046B 09006.16137898 .00000882 00000-0 60481-4 0 7231 2 12465 081.2267 300.8326 0039272 105.1576 255.3996 15.04339435502593 METEOR PRIRODA 1 12585U 81065A 09006.82961653 -.00000376 00000-0 -20845-4 0 2776 2 12585 097.4324 058.6976 0018404 273.5646 086.3476 15.07182803496258 SL-3 R/B 1 12904U 81103B 09007.01510517 .00000091 00000-0 56812-5 0 7620 2 12904 081.1771 174.6997 0033933 069.9533 290.5412 14.98459799 30227 SL-3 R/B 1 13068U 82013B 09006.46175221 -.00000028 00000-0 -40119-5 0 7669 2 13068 081.2053 121.2328 0025254 000.8153 359.3167 15.00229919460285 SL-3 R/B 1 13154U 82039B 09006.14534842 .00000184 00000-0 15508-4 0 5264 2 13154 081.1852 094.3155 0044164 199.7691 160.1828 14.92688127442935 COSMOS 1400 1 13402U 82079A 09006.07432145 .00000408 00000-0 13857-4 0 6882 2 13402 081.1335 316.4359 0006872 320.0073 040.0655 15.28102884444519 SL-3 R/B 1 13403U 82079B 09007.13409513 -.00000217 00000-0 -19412-4 0 8845 2 13403 081.1708 176.2114 0038637 292.4303 067.2841 14.99070879433866 SL-3 R/B 1 13819U 83010B 09006.01402207 .00000376 00000-0 24443-4 0 3491 2 13819 081.1053 129.4258 0039472 066.0690 294.4660 15.04984374408586 COSMOS 1484 1 14207U 83075A 09006.50284583 .00002419 00000-0 54425-4 0 2215 2 14207 097.5250 118.5331 0016394 086.3299 273.9841 15.44255435836410 SL-3 R/B 1 14208U 83075B 09006.17076820 .00000667 00000-0 54366-4 0 5201 2 14208 097.7033 061.6908 0047532 214.7143 145.1009 15.02120669383487 COSMOS 1500 1 14372U 83099A 09006.22409890 .00000345 00000-0 22879-4 0 349 2 14372 082.5325 109.5830 0012727 208.9210 151.1330 15.04034091372598 SL-8 R/B 1 14484U 83111B 09006.48128995 .00001867 00000-0 58988-4 0 7718 2 14484 082.8476 334.4251 0439260 124.4837 239.8721 14.71512765276616 COSMOS 1536 1 14699U 84013A 09007.22717261 .00000354 00000-0 27594-4 0 3334 2 14699 082.5265 054.8560 0016457 066.2574 294.0373 14.98018369350645 COSMOS 1544 1 14819U 84027A 09006.55545995 -.00000075 00000-0 -68446-5 0 4077 2 14819 082.5294 187.9827 0012071 358.9178 001.2020 15.07700282349024 SL-14 R/B 1 14820U 84027B 09006.60463758 .00000050 00000-0 32107-5 0 9667 2 14820 082.5423 341.7977 0020335 136.5691 223.7128 14.82081844339047 ERBS 1 15354U 84108B 09007.23565721 -.00000281 00000-0 96835-6 0 53 2 15354 056.9883 099.7311 0022811 124.7054 235.6122 15.15668320327657 SL-8 R/B 1 15483U 85006B 09007.10830905 .00000019 00000-0 15756-4 0 6616 2 15483 074.0446 248.5151 0019661 267.6220 092.2671 14.35202310254113 SL-12 R/B(2) 1 15772U 85042D 09006.54113576 .00000100 00000-0 68152-4 0 8501 2 15772 071.1077 359.1170 0035519 158.5143 201.7466 14.20697035223429 SL-14 R/B 1 15945U 85069B 09007.01970780 .00000075 00000-0 63689-5 0 9450 2 15945 082.5277 136.4527 0020828 008.7153 351.4415 14.82418062264066 SL-3 R/B 1 16111U 85090B 09006.07431116 .00000681 00000-0 34978-4 0 8292 2 16111 097.6193 064.5859 0035482 162.9877 197.2542 15.19531184272487 SL-16 R/B 1 16182U 85097B 09006.50347970 -.00000304 00000-0 -13022-3 0 7568 2 16182 071.0019 014.3393 0005713 096.7097 263.4668 14.15946771199688 SL-14 R/B 1 16496U 86006B 09006.12243606 .00000045 00000-0 25762-5 0 8574 2 16496 082.5225 015.1173 0020403 149.5464 210.6959 14.82517775240210 SL-14 R/B 1 16792U 86046B 09006.63845013 .00000067 00000-0 54941-5 0 7601 2 16792 082.4798 219.8796 0025157 356.5117 003.5933 14.81647142218096 SL-14 R/B 1 16882U 86055B 09007.15239223 .00000082 00000-0 73221-5 0 7518 2 16882 082.5186 235.6059 0021909 110.3529 250.0035 14.81595360211189 COSMOS 1812 1 17295U 87003A 09006.21196358 .00000596 00000-0 42973-4 0 8181 2 17295 082.5225 263.1379 0011172 222.4318 137.6040 15.02345538194411 SL-14 R/B 1 17567U 87024B 09007.11603655 .00000048 00000-0 29607-5 0 6538 2 17567 082.5266 200.5979 0021488 064.6732 295.6709 14.82162892179592 COSMOS 1833 1 17589U 87027A 09007.06480728 -.00000191 00000-0 -77127-4 0 2113 2 17589 070.9156 183.4269 0001851 013.2647 346.8522 14.12778484124857 SL-16 R/B 1 17590U 87027B 09005.47065128 -.00000189 +00000-0 -71090-4 0 02807 2 17590 070.9991 163.9827 0005515 306.3625 053.7047 14.16464144127287 SL-14 R/B 1 17912U 87038B 09006.63740470 .00000055 00000-0 40734-5 0 6396 2 17912 082.5000 059.5908 0019133 294.9418 064.9810 14.81466391171007 COSMOS 1844 1 17973U 87041A 09006.19382399 -.00000096 00000-0 -25314-4 0 2276 2 17973 070.8934 291.2389 0029109 072.0139 288.4156 14.13708339117245 SL-14 R/B 1 18153U 87055B 09006.23209246 .00000113 00000-0 11235-4 0 6466 2 18153 082.5001 115.8182 0023024 145.1083 215.1660 14.81694438161507 COSMOS 1867 1 18187U 87060A 09006.77953587 -.00000116 00000-0 -58865-5 0 4893 2 18187 065.0099 216.2740 0015669 255.7221 104.2128 14.30848737122816 SL-14 R/B 1 18749U 88001B 09006.94414378 .00000070 00000-0 59011-5 0 6558 2 18749 082.5145 310.0617 0020526 021.3316 338.8762 14.81635622133737 COSMOS 1933 1 18958U 88020A 09006.56353913 .00000089 00000-0 54508-5 0 5292 2 18958 082.5309 181.1904 0011798 276.2741 083.7136 14.96675601129453 SL-3 R/B 1 19046U 88032B 09006.50835041 .00000303 00000-0 32323-4 0 570 2 19046 097.9241 041.8341 0036866 260.4788 099.2273 14.95859917110843 SL-16 R/B 1 19120U 88039B 09005.96105581 .00000072 00000-0 57975-4 0 6678 2 19120 071.0115 359.2389 0025060 235.1471 124.7282 14.18573597 68892 COSMOS 1953 1 19210U 88050A 09007.20310456 .00000214 00000-0 16465-4 0 6407 2 19210 082.5210 118.3959 0014920 255.8059 104.1512 14.96526913115613 SL-8 R/B 1 19257U 88053B 09006.66522605 -.00000005 00000-0 72284-5 0 4837 2 19257 074.0489 119.9304 0019928 054.3703 305.9304 14.36373449 75905 COSMOS 1975 1 19573U 88093A 09006.54242555 .00000284 00000-0 23292-4 0 4159 2 19573 082.5237 063.6710 0015856 277.6134 082.3287 14.95345390 97887 SL-14 R/B 1 19574U 88093B 09006.90641448 .00000082 00000-0 73828-5 0 6366 2 19574 082.5318 143.7821 0021833 184.1681 175.9355 14.81734792 92672 SL-16 R/B 1 19650U 88102B 09006.48548185 .00000118 00000-0 84781-4 0 7628 2 19650 070.9982 017.7508 0015325 200.5910 159.4616 14.15508145 39591 INTERCOSMOS 24 1 20261U 89080A 09005.91490678 +.00000055 +00000-0 +12502-4 0 08931 2 20261 082.5897 203.8361 1215673 352.8331 005.6651 12.53409419879257 SL-14 R/B 1 20262U 89080C 09007.16003399 .00000064 00000-0 95101-5 0 2594 2 20262 082.5863 228.5331 1242871 078.0926 295.6508 12.47745697877084 DELTA 1 R/B 1 20323U 89089B 09006.28226694 .00000042 00000-0 20250-4 0 3575 2 20323 097.0812 046.8746 0074792 050.9792 309.8029 14.46730000 8649 DELTA 2 R/B(1) 1 20453U 90008B 09006.36587650 .00000488 00000-0 39404-4 0 3792 2 20453 035.6368 328.5374 0379043 258.7085 097.0813 14.59156736994388 COSMOS 2058 1 20465U 90010A 09006.31072029 .00000091 00000-0 66441-5 0 3468 2 20465 082.4935 314.2900 0017676 173.3006 186.8444 14.90923931 24996 SL-14 R/B 1 20466U 90010B 09006.60829245 .00000051 00000-0 35990-5 0 2461 2 20466 082.5009 014.1576 0022260 019.0558 341.1481 14.79886891 21262 SL-14 R/B 1 20511U 90018B 09006.92394939 .00000068 00000-0 60700-5 0 2579 2 20511 082.5235 301.8693 0019067 126.8630 233.4342 14.78605773 16270 HST 1 20580U 90037B 09006.22217519 .00000330 00000-0 12713-4 0 2995 2 20580 028.4695 078.9162 0003402 022.5106 337.5637 15.00444770825505 SL-16 R/B 1 20625U 90046B 09006.46425741 .00000288 00000-0 17519-3 0 1954 2 20625 070.9974 139.8288 0013130 114.9032 245.3472 14.14370449961785 COSMOS 2084 1 20663U 90055A 09006.56718628 -.00000107 00000-0 85013-5 0 4057 2 20663 062.7938 020.6618 0068742 352.2269 007.7750 14.85267245 957 SL-6 R/B(2) 1 20666U 90055D 09006.88059062 -.00000016 00000-0 18426-4 0 4743 2 20666 062.7901 313.2359 0089123 017.6059 342.8070 14.86344766 2144 SL-8 R/B 1 20775U 90078B 09006.94600077 .00001198 00000-0 69899-4 0 7692 2 20775 082.9415 342.4520 0729362 216.2488 138.7115 13.97598837913652 SL-14 R/B (Decayed 2007-01-08) 1 20967U 90104B 07008.18498612 .13537369 -13386-5 56173-4 0 5448 2 20967 082.4240 094.1023 0009798 286.5108 140.5507 16.57327006903997 SL-8 R/B 1 21088U 91006B 09006.48395356 -.00000036 00000-0 -51405-4 0 2985 2 21088 082.9413 151.9152 0021736 313.0105 046.9235 13.76723175901252 OKEAN 3 1 21397U 91039A 09006.38670740 .00000188 00000-0 18257-4 0 5398 2 21397 082.5221 172.1626 0021492 058.9362 301.3963 14.86784030950831 COSMOS 2151 1 21422U 91042A 09006.30535628 .00000218 00000-0 21248-4 0 1684 2 21422 082.5019 289.2024 0017336 108.9060 251.4017 14.87437806949492 SL-14 R/B 1 21423U 91042B 09006.40527048 .00000063 00000-0 54988-5 0 576 2 21423 082.4941 319.7312 0016130 261.0751 098.8639 14.78385187946791 ERS 1 1 21574U 91050A 09006.65982670 .00000014 00000-0 18848-4 0 3455 2 21574 098.1720 033.3382 0033752 194.1409 165.8846 14.35674497914910 ARIANE 40 R/B 1 21610U 91050F 09006.51953122 .00000068 00000-0 36581-4 0 9179 2 21610 098.6139 331.0853 0003656 110.8212 249.3367 14.39041511916353 UARS 1 21701U 91063B 09006.46064849 .00004531 00000-0 68342-4 0 5600 2 21701 056.9735 353.0684 0076359 213.0532 146.5741 15.53805211954077 INTERCOSMOS 25 1 21819U 91086A 09006.83774900 .00000799 00000-0 15156-3 0 7453 2 21819 082.5553 107.0437 1550362 133.6300 240.4370 11.98956605742037 SL-14 R/B 1 21820U 91086B 09006.46967379 .00000016 00000-0 17986-5 0 5565 2 21820 082.5660 133.2453 1588330 221.8086 125.0434 11.90823267739421 SL-8 R/B 1 21876U 92008B 09006.58657297 .00000039 00000-0 25096-4 0 4811 2 21876 082.9246 248.4492 0035676 002.4974 357.6353 13.75360385847487 SL-8 R/B 1 21938U 92020B 09006.93081108 .00000070 00000-0 56869-4 0 5037 2 21938 082.9301 129.0337 0029547 149.9863 210.2994 13.75033903839540 SL-16 R/B 1 22220U 92076B 09006.42611871 -.00000210 00000-0 -82112-4 0 7921 2 22220 070.9997 068.7258 0014724 286.3015 073.6498 14.16129536834167 SL-16 R/B 1 22285U 92093B 09006.88587408 -.00000208 00000-0 -83228-4 0 8049 2 22285 071.0193 198.7406 0004108 169.9289 190.1900 14.14728449826431 COSMOS 2228 1 22286U 92094A 09007.14283039 .00000117 00000-0 11483-4 0 8584 2 22286 082.5191 028.5633 0020506 229.2036 130.7388 14.83006754864952 SL-16 R/B 1 22566U 93016B 09006.48684122 -.00000296 00000-0 -12925-3 0 5380 2 22566 071.0079 058.0030 0009435 155.0597 205.0964 14.14635833815138 COSMOS 2242 1 22626U 93024A 09006.27213681 .00000138 00000-0 13955-4 0 3826 2 22626 082.5209 057.0581 0018983 232.8230 127.1241 14.83163181848454 SL-16 R/B 1 22803U 93059B 09006.85273345 -.00000287 00000-0 -12006-3 0 7576 2 22803 070.9918 265.1934 0015782 035.6554 324.5605 14.16543077791620 ARIANE 40 R/B 1 22830U 93061H 09006.92818940 .00000002 00000-0 17605-4 0 6273 2 22830 098.5552 318.8674 0010861 322.9628 037.0798 14.30468640797313 COSMOS 2278 1 23087U 94023A 09007.08407122 -.00000177 00000-0 -69189-4 0 106 2 23087 071.0564 320.0724 0011181 245.9274 114.0678 14.13293665758836 SL-16 R/B 1 23088U 94023B 09006.94172101 -.00000226 00000-0 -93165-4 0 4286 2 23088 071.0010 272.0564 0001730 137.3851 222.7395 14.14454601759547 SL-16 R/B 1 23343U 94074B 09007.01663998 .00000003 00000-0 80165-5 0 3630 2 23343 098.0032 334.2407 0006250 219.1235 140.9520 14.74968493762100 SL-16 R/B 1 23405U 94077B 09005.93172663 -.00000048 +00000-0 +00000-0 0 00424 2 23405 070.9797 218.4908 0004239 294.0992 065.9684 14.14913344729213 ERS 2 1 23560U 95021A 09007.09703410 -.00000008 00000-0 13210-4 0 6934 2 23560 098.5651 084.3701 0000748 095.0154 265.1121 14.32240601717150 ARIANE 40+ R/B 1 23561U 95021B 09006.94380808 .00000043 00000-0 29306-4 0 2072 2 23561 098.4176 321.4822 0007927 056.8219 303.3728 14.36358021718445 SL-16 R/B 1 23705U 95058B 09005.50698997 -.00000262 +00000-0 -11097-3 0 08522 2 23705 071.0201 019.3509 0013184 310.2078 049.7972 14.14852115680852 SL-16 R/B 1 24298U 96051B 09006.12523790 -.00000144 00000-0 -52151-4 0 9506 2 24298 070.8867 075.0435 0014069 107.6188 252.6472 14.12409210636353 ORBVIEW 2 (SEASTAR) 1 24883U 97037A 09006.53811772 .00000042 00000-0 18741-4 0 6257 2 24883 098.3216 129.6230 0001794 020.4173 339.7101 14.59971154608854 SL-16 R/B 1 25400U 98043G 09006.11676027 -.00000009 00000-0 13685-4 0 1113 2 25400 098.3993 061.0052 0010207 354.3948 005.7115 14.25087650545780 SL-16 R/B 1 25407U 98045B 09005.62494438 .00000182 00000-0 11736-3 0 9361 2 25407 071.0103 041.9244 0009448 231.7976 128.2307 14.15493557539662 ISS (ZARYA) 1 25544U 98067A 09006.52567200 .00012730 00000-0 99439-4 0 130 2 25544 051.6428 054.4350 0007000 165.8125 336.8270 15.72052661580528 SL-8 R/B 1 25723U 99022C 09007.19112729 .00000866 00000-0 59990-4 0 2088 2 25723 048.4432 139.2548 0022027 119.2238 241.0898 15.15956641534879 CZ-4 R/B 1 25732U 99025C 09006.50525937 -.00000030 00000-0 63752-5 0 9986 2 25732 098.6218 346.5381 0036751 266.2881 093.4092 14.17179421499804 OKEAN O 1 25860U 99039A 09007.03562587 .00000037 00000-0 13006-4 0 5689 2 25860 097.7694 354.7807 0001282 041.9506 318.1791 14.73552756509411 SL-16 R/B 1 25861U 99039B 09006.47248140 -.00000038 00000-0 15349-5 0 9334 2 25861 097.6899 002.9512 0016011 334.2380 025.8037 14.76596912510475 SL-14 R/B 1 26874U 01032B 09006.91041380 .00000677 00000-0 18797-4 0 306 2 26874 082.4770 224.6477 0023594 358.6691 001.4530 15.34702577415532 ENVISAT 1 27386U 02009A 09006.51709320 -.00000129 00000-0 -31671-4 0 7645 2 27386 098.5467 076.2130 0001204 104.4795 255.6553 14.32248769358354 IDEFIX/ARIANE 42P 1 27422U 02021B 09006.85924957 -.00000083 00000-0 -15894-4 0 9428 2 27422 098.5377 089.7577 0012257 340.9698 019.1023 14.28475439346373